Location: Briarstone Lake
(43.1454°N, 93.2359°W)
Time: 18:43:02
(UTC+00:00)

BlueWalker 3 - Pass Details

Date: 29 January 2026
Orbit: 450 x 461 km, 53.2° (Epoch: 11 February)

Event Time Altitude Azimuth Distance (km) Brightness Sun altitude
Rises 00:16:59 0° 280° (W) 2,456 6.8 -10.6°
Reaches altitude 10° 00:19:32 10° 298° (WNW) 1,584 5.2 -11.0°
Maximum altitude 00:22:12 19° 346° (NNW) 1,124 3.7 -11.5°
Enters shadow 00:24:38 11° 32° (NNE) 1,517 4.0 -11.9°
